Starlink 31675

operational
NORAD ID: 59548 Int'l Des: 2024-074 Owner: SPXS Country: US Constellation: starlink
LEOCIRCULAR

About Starlink 31675

Description loading...

Live Position

Loading 3D Globe...

Upcoming Passes

Altitude History

Altitude vs Time

uPlot chart will show altitude changes over time

Two-Line Element Set

1 59548U 24074Q 25350.56701939 .00002137 00000-0 87214-4 0 9992
2 59548 43.0063 92.7972 0003849 286.2003 73.8425 15.27575812 93307
Epoch: Dec 16, 2025 • Age: 17 hours

Current Status

Altitude 493.7 km
Velocity 7.62 km/s
Sub-Earth Point -42.73°S, 175.01°W
Launch Date Apr 18, 2024
Age 1.6 years
Type internet

Technical Details

Classification Payload
Mass 730.00 kg
Dry Mass 700.00 kg
Total Mass 730.00 kg
Length 0.30 m
Diameter 4.10 m
Span 29.00 m
Shape Box + pan
Manufacturer SPXS
Bus Type Starlink V2M
Phase Status In Orbit
Owner/State SPXS/US

Large Constellations

Loading constellations...